Home   Weather   Kitakyushu   Past weeks

Flag for Japan Past Weather in Kitakyushu, Japan — Yesterday and Last 2 Weeks

Now
70 °F

Scattered clouds.


Feels Like: 70 °F
Forecast: 55 / 69 °F
Wind: 22 mph from West

Location: Kitakyushu Airport

Current Time: May 1, 2017 at 9:51:28 am

Latest Report: May 1, 2017 at 9:00 am


Visibility: N/A

Pressure: 29.98 "Hg

Humidity: 50%

Dew Point: 50 °F

Location of KitakyushuLocation

Past Weather in Kitakyushu — Graph

°F

Kitakyushu Temperature Yesterday

Maximum temperature yesterday: 81 °F (at 2:00 pm)
Minimum temperature yesterday: 55 °F (at 5:00 am)
Average temperature yesterday: 66 °F

High & Low Weather Summary for the Past Weeks

 TemperatureHumidityPressure
High81 °F (Apr 30, 2:00 pm)94% (Apr 16, 8:00 am)30.18 "Hg (Apr 16, 8:00 am)
Low50 °F (Apr 23, 4:00 am)19% (Apr 29, 3:00 pm)29.36 "Hg (Apr 17, 8:00 pm)
Average61 °F68%29.85 "Hg
* Reported Apr 16 8:00 am — May 1 8:00 am, Kitakyushu, Weather by CustomWeather, © 2017

Note: Actual official high and low records may vary slightly from our data, if they occured in-between our weather recording intervals... More about our weather records

Advertising

Kitakyushu Weather History for the Previous 24 Hours

Scroll right to see more
 ConditionsComfort  
Time TempWeatherWind HumidityBarometerVisibility
8:00 am
Mon, May 1
68 °FScattered clouds.6 mph46%29.98 "HgN/A
7:00 am64 °FScattered clouds.2 mph68%29.98 "HgN/A
6:00 am61 °FPartly sunny.6 mph72%29.92 "HgN/A
5:00 am66 °FPassing clouds.9 mph52%29.89 "HgN/A
4:00 am66 °FPassing clouds.6 mph52%29.89 "HgN/A
3:00 am66 °FPassing clouds.3 mph52%29.89 "HgN/A
2:00 am68 °FPassing clouds.7 mph43%29.89 "HgN/A
1:00 am68 °FPassing clouds.8 mph40%29.89 "HgN/A
12:00 am68 °FPassing clouds.13 mph46%29.89 "HgN/A
11:00 pm
Sun, Apr 30
68 °FClear.14 mph49%29.89 "Hg10 mi
10:00 pm70 °FClear.9 mph46%29.89 "Hg10 mi
9:00 pm70 °FPassing clouds.3 mph50%29.89 "HgN/A
8:00 pm72 °FClear.12 mph50%29.86 "Hg10 mi
7:00 pm73 °FPassing clouds.7 mph47%29.86 "HgN/A
6:00 pm77 °FPassing clouds.16 mph39%29.83 "HgN/A
5:09 pm77 °FPassing clouds.13 mph44%29.83 "HgN/A
4:00 pm75 °FScattered clouds.3 mph47%29.83 "HgN/A
3:00 pm72 °FScattered clouds.3 mph57%29.83 "HgN/A
2:00 pm81 °FSunny.5 mph37%29.83 "Hg10 mi
1:00 pm72 °FSunny.5 mph57%29.86 "Hg10 mi
12:00 pm64 °FPassing clouds.5 mph73%29.86 "HgN/A
11:00 am64 °FSunny.6 mph68%29.89 "Hg10 mi
10:00 am61 °FSunny.8 mph77%29.89 "Hg10 mi
9:00 am61 °FSunny.7 mph72%29.89 "Hg10 mi
Weather by CustomWeather, © 2017

See weather overviewHow to use our weather pages